Location: New Canada
(47.1017°N, 68.5042°W)
Time: 04:49:15
(UTC+00:00)

COSMOS 1818 DEB - Pass Details

Date: 03 December 2023
Orbit: 754 x 785 km, 65.0° (Epoch: 12 November)

Event Time Altitude Azimuth Distance (km) Brightness Sun altitude
Rises 21:53:31 0° 267° (W) 3,258 ? -11.1°
Reaches altitude 10° 21:56:33 10° 284° (WNW) 2,337 ? -11.6°
Maximum altitude 22:00:29 20° 331° (NNW) 1,744 ? -12.2°
Drops below altitude 10° 22:04:26 10° 19° (NNE) 2,350 ? -12.9°
Enters shadow 22:05:21 - 25° (NNE) 2,609 ? -13.0°
